Other Public Products
Issued by NWS Grand Forks, ND

Home | Current Version | Previous Version | Graphics & Text | Print | Product List | Glossary On
Versions: 1 2 3 4 5 6 7 8 9 10 11 12 13 14 15 16 17 18 19 20 21 22 23 24 25 26 27 28 29 30 31 32 33 34 35 36 37 38 39 40 41 42 43 44 45 46 47 48 49 50
000
FPUS83 KFGF 301331
OPUFGF
PRAIRIE TO PINES WEATHER ROUNDUP
NATIONAL WEATHER SERVICE EASTERN NORTH DAKOTA/GRAND FORKS ND
800 AM CDT MON MAY 30 2016

 **SATELLITE DATA USED TO AUGMENT SKY COVER AT AUTOMATED STATIONS**
 *****  WEATHER ACROSS EASTERN NORTH DAKOTA  *****

CITY           SKY/WX    TMP DP  RH WIND       PRES   REMARKS
GRAND FORKS    PTSUNNY   58  51  78 S6        29.92R
GRAND FORKS AF MOSUNNY   61  52  72 S9        29.91F
GRAND CITY NWS   N/A     61 N/A N/A SE10        N/A
BUXTON           N/A     64  57  77 SE5         N/A
DEVILS LAKE    MOSUNNY   62  53  72 S5        29.93S
FARGO          SUNNY     64  49  57 S5        29.94S
WAHPETON ARPT  SUNNY     64  50  59 S6        29.96S
$$

 *****  WEATHER ACROSS CENTRAL AND WESTERN NORTH DAKOTA  *****

CITY           SKY/WX    TMP DP  RH WIND       PRES   REMARKS
JAMESTOWN      SUNNY     63  53  70 S5        29.93F
BISMARCK       SUNNY     57  53  86 CALM      29.93F
MINOT          SUNNY     59  50  72 CALM      29.89S
MINOT AFB      MOSUNNY   57  49  75 CALM      29.88F
GARRISON         N/A     57  52  83 SE3       29.91S
WILLISTON      CLOUDY    51  45  79 NE3       29.90S
DICKINSON      PTSUNNY   57  50  77 CALM      29.90R
HETTINGER      MOSUNNY   60  53  77 E7        29.91S
$$

 *****  OTHER OBSERVATIONS NORTHEAST NORTH DAKOTA  *****

CITY           SKY/WX    TMP DP  RH WIND       PRES   REMARKS
WALHALLA       FAIR      64  61  88 CALM      29.91S
LANGDON        FAIR      63  50  63 S6        29.93S
CAVALIER       PTSUNNY   59  52  77 S3        29.92R
GRAFTON        FAIR      59  55  88 SE3       29.94S
CANDO          FAIR      63  54  72 SE3       29.93F
FORT TOTTEN      N/A     58  48  69 S6        29.95S
ROLLA          FAIR      64  43  45 W7        29.93S
RUGBY          FAIR      59  50  72 CALM      29.91S
 ***** THE ABOVE OBSERVATIONS ARE NON NWS ARE NOT QUALITY
        CONTROLLED AND MAY MIS-REPORT RAIN FOR SNOW...
$$

 *****  OTHER OBSERVATIONS SOUTHEAST NORTH DAKOTA *****

CITY           SKY/WX    TMP DP  RH WIND       PRES   REMARKS
COOPERSTOWN    NOT AVBL
VALLEY CITY    FAIR      63  63 100 S6        29.95F
OAKES            N/A    N/A N/A N/A MISG        N/A
GWINNER        FAIR      66  55  68 SW10      29.95S
SHEYENNE NWR     N/A     63  56  78 SW7       29.95S
BUFFALO          N/A     64  51  62 SW3         N/A
WYNDMERE         N/A     72  52  49 SW8         N/A
 ***** THE ABOVE OBSERVATIONS ARE NON NWS ARE NOT QUALITY
       CONTROLLED AND MAY MIS-REPORT RAIN FOR SNOW...
$$

  *****  WEATHER ACROSS NORTHERN MINNESOTA  *****

CITY           SKY/WX    TMP DP  RH WIND       PRES   REMARKS
FLAG ISLAND    SUNNY     57  54  88 CALM      29.94S
WARROAD        SUNNY     61  55  82 CALM      29.95S
ROSEAU         SUNNY     61  55  82 CALM      29.94S
HALLOCK        SUNNY     61  54  77 S7        29.92R
THF RVR FALLS  CLOUDY    63  48  59 CALM      29.95F
HALSTAD        NOT AVBL
FOSSTON        MOSUNNY   63  54  72 SW3       29.97R
BAUDETTE       SUNNY     57  52  83 CALM      29.95S
WASKISH        SUNNY     61  55  82 SW3       29.95F
CROOKSTON      PTSUNNY   57  54  88 SE5       29.94S
$$
  *****  WEATHER ACROSS CENTRAL AND WEST MINNESOTA  *****

CITY           SKY/WX    TMP DP  RH WIND       PRES   REMARKS
BEMIDJI        SUNNY     60  50  69 SW3       29.97S
PARK RAPIDS    MOSUNNY   64  51  62 W3        29.98S
WADENA         MOSUNNY   64  52  63 SE3       29.98F
DETROIT LAKES  SUNNY     64  52  63 SE3       29.97F
MOORHEAD       SUNNY     63  52  67 S6        29.95S
FERGUS FALLS   SUNNY     66  52  59 S7        29.94S
ELBOW LAKE     FAIR      64  52  64 S6        29.99R
MORRIS MN      SUNNY     68  55  64 CALM      29.97F
STAPLES        SUNNY     61  50  67 CALM      29.98F
WHEATON        SUNNY     70  55  60 S5        29.97F
$$
  *****  WEATHER ELSEWHERE ACROSS MINNESOTA  *****

CITY           SKY/WX    TMP DP  RH WIND       PRES   REMARKS
DULUTH         SUNNY     64  54  69 W13       29.98S
INTRNTL FALLS  SUNNY     56  51  84 W5        29.96S
ELY            SUNNY     59  52  77 W7        29.96S
CLOQUET        SUNNY     64  52  63 W7        29.99S
BRAINERD       PTSUNNY   60  54  80 CALM      29.99F
HIBBING        SUNNY     59  53  80 VRB5      29.97S
ALEXANDRIA     SUNNY     64  53  67 SW5       30.00S
SAINT CLOUD    MOSUNNY   60  57  89 SE3       30.00R
MINNEAPOLIS    CLOUDY    65  58  78 SW6       30.02R
$$

  *****  WEATHER ACROSS SOUTH DAKOTA  *****

CITY           SKY/WX    TMP DP  RH WIND       PRES   REMARKS
SIOUX FALLS    PTSUNNY   66  53  63 SE8       29.99S
BROOKINGS      CLOUDY    60  56  86 SE3       29.97R
WATERTOWN      MOSUNNY   64  54  69 E5        29.95F
HURON          LGT RAIN  62  57  83 MISG      29.93R
SISSETON         N/A     70  53  54 SW14      29.93F
ABERDEEN       MOSUNNY   64  55  72 S6        29.94S
MITCHELL       CLOUDY    63  59  87 SE16      29.98R
PIERRE         PTSUNNY   62  57  83 SE13      29.90F
MOBRIDGE       MOSUNNY   62  56  80 SE7       29.90S
RAPID CITY     MOSUNNY   56  52  86 SE3       29.89F
$$

  *****  SOME WEATHER IN NEARBY STATES *****

CITY           SKY/WX    TMP DP  RH WIND       PRES   REMARKS
GLASGOW MT     CLOUDY    59  44  57 SW9       29.92S
GREAT FALLS MT CLOUDY    46  41  82 NW10      30.05R
CHEYENNE WY    SUNNY     52  41  66 W9        30.07F
SCOTTSBLUFF NE SUNNY     55  50  83 N3        29.98S
OMAHA NE       MOSUNNY   69  63  81 S6        30.02S
DES MOINES IA  MOSUNNY   70  62  76 S7        30.03R
DAVENPORT IA   SUNNY     71  59  65 NW5       30.05R
CHICAGO IL     MOSUNNY   72  59  63 CALM      30.02S
EAU CLAIRE WI  SUNNY     63  59  87 CALM      30.01R
LA CROSSE WI   PTSUNNY   62  60  93 S6        30.03S
$$

  *****  SOME NATIONAL WEATHER *****

CITY           SKY/WX    TMP DP  RH WIND       PRES   REMARKS
LA GUARDIA NY  CLOUDY    70  65  84 W7        30.00R
RALEIGH NC     FOG       68  67  96 NE5       30.02R VSB 1/4
ATLANTA GA     MOSUNNY   76  59  55 VRB5      30.05S
NEW ORLEANS LA PTSUNNY   79  72  79 NW6       30.04R
OKLAHOMA CITY  CLOUDY    67  65  93 CALM      30.03S
ALBUQUERQUE NM MOSUNNY   57  44  62 N9        30.13R
SALT LAKE CITY PTCLDY    57  45  64 E9        30.10R
LOS ANGELES CA CLOUDY    60  54  80 CALM      30.00S
BOISE ID       PTCLDY    52  38  58 NW8       30.13R
SEATTLE WA     PTCLDY    48  42  80 N6        30.30R
$$

*** WEATHER ACROSS MANITOBA...SASKATCHEWAN AND ONTARIO ***
                ***ONTARIO***

CITY           SKY/WX    TMP DP  RH WIND       PRES   REMARKS
GERALDTON      CLOUDY    50  48  93 NW12      29.79S
THUNDER BAY    MOSUNNY   61  54  77 W12G20    29.87R
SIOUX LOOKOUT  DRIZZLE   50  48  93 NW8       29.92R
TORONTO        MOSUNNY   79  48  34 W12       29.93
BIG TROUT LK   MOSUNNY   39  32  75 N9        29.99R
PICKLE LAKE    LGT RAIN  43  41  93 N9G21     29.89R FOG
DRYDEN         CLOUDY    54  52  94 NW6       29.93R
KENORA         CLOUDY    52  52 100 N5        29.97R
$$
                *** MANITOBA***

CITY           SKY/WX    TMP DP  RH WIND       PRES   REMARKS
BRANDON        MOSUNNY   55  48  76 W6        29.90S
DAUPHIN        CLOUDY    52  52 100 CALM      29.93R FOG
ISLAND LAKE    NOT AVBL
PILOT MOUND      N/A     57  48  72 S6          N/A
THE PAS        DRIZZLE   50  50 100 N6        29.95S FOG
THOMPSON       LGT RAIN  39  37  93 E7        30.07
WINNIPEG       PTSUNNY   59  54  82 E8        29.92R
LYNN LAKE      CLOUDY    41  41 100 NE9       30.07S FOG
CHURCHILL      FLURRIES  27  25  93 NE12      30.27R WCI  16
GILLAM         CLOUDY    32  28  86 E7        30.16R
$$
                ***SASKATCHEWAN***

CITY           SKY/WX    TMP DP  RH WIND       PRES   REMARKS
ESTEVAN        PTSUNNY   54  48  82 SE2       29.89F
KINDERSLEY     CLOUDY    50  48  93 E16G30    29.88R
LLOYDMINSTER   CLOUDY    50  48  93 E6        29.96R
PRINCE ALBERT  MOSUNNY   48  46  93 E6        29.98
REGINA         PTSUNNY   52  45  76 E6        29.88S
YORKTON        FOG       50  48  93 N9        29.92S VSC1F1C2F2C3F3C4F4C5F5C6F6C7F7C8F8C9F9CaFaCbFbCcFcCdFdCe!



USA.gov is the U.S. government's official web portal to all federal, state and local government web resources and services.